FW7205 Weather Reports


time (UTC)temp
F
wind
direction
speed
knots
gust
knots
rain 1hr
in
rain 24hr
in
rain mn
in
humidity
%
barometer
mb
20260905091607 78 0 0.0 0.0 0.00 0.00 0.00 89 1012.0
20260905090059 78 0 0.0 0.0 0.00 0.00 0.00 89 1011.8
20260905084605 78 0 0.0 0.0 0.00 0.01 0.00 88 1011.7
20260905083111 78 0 0.0 0.0 0.00 0.01 0.00 88 1011.8
20260905081600 78 0 0.0 0.0 0.00 0.01 0.00 87 1011.8
20260905080106 78 0 0.0 0.0 0.00 0.01 0.00 87 1011.9
20260905074604 79 0 0.0 0.0 0.00 0.01 0.00 87 1011.9
20260905073103 79 0 0.0 0.0 0.00 0.01 0.00 86 1012.1
20260905071601 79 0 0.0 0.0 0.00 0.01 0.00 86 1012.3
20260905070116 79 0 0.0 0.0 0.00 0.01 0.00 86 1012.4
20260905064602 79 0 0.0 0.0 0.00 0.04 0.00 85 1012.5
20260905063102 79 0 0.0 0.0 0.00 0.04 0.00 84 1012.5
20260905061608 79 0 0.0 0.0 0.00 0.04 0.00 84 1012.4
20260905060101 80 0 0.0 0.0 0.00 0.04 0.00 84 1012.7
20260905054558 80 0 0.0 0.0 0.00 0.06 0.00 83 1012.7
20260905053059 80 0 0.0 0.9 0.00 0.06 0.00 83 1012.5
20260905051601 80 0 0.0 0.9 0.00 0.06 0.00 82 1012.4
20260905050103 80 0 0.0 0.9 0.00 0.06 0.00 82 1012.4
20260905044605 80 0 0.0 0.9 0.00 0.06 0.06 82 1012.7
20260905043100 80 0 0.0 0.0 0.00 0.06 0.06 82 1012.6
20260905041607 81 0 0.0 0.0 0.00 0.06 0.06 81 1012.5
20260905040100 81 0 0.0 0.0 0.00 0.06 0.06 81 1012.4
20260905034615 81 0 0.0 0.9 0.00 0.06 0.06 81 1012.7
20260905033105 81 0 0.0 0.9 0.00 0.06 0.06 80 1012.6
20260905031607 82 0 0.0 0.0 0.00 0.06 0.06 80 1012.6
20260905030106 82 0 0.0 0.0 0.00 0.06 0.06 79 1012.6
20260905024605 82 0 0.0 0.0 0.00 0.06 0.06 77 1012.5
20260905023110 83 0 0.0 0.0 0.00 0.06 0.06 76 1012.3
20260905021600 84 0 0.0 0.0 0.00 0.06 0.06 75 1012.1
20260905020105 84 0 0.0 0.0 0.00 0.06 0.06 74 1012.0
20260905014607 85 0 0.0 0.0 0.00 0.06 0.06 73 1011.8
20260905013103 85 0 0.0 0.0 0.00 0.06 0.06 72 1011.8
20260905011602 86 0 0.0 0.0 0.00 0.06 0.06 70 1011.6
20260905010058 87 0 0.0 0.9 0.00 0.06 0.06 69 1011.5
20260905004637 87 0 0.0 0.9 0.00 0.06 0.06 68 1011.1
20260905003102 88 0 0.0 0.0 0.00 0.06 0.06 66 1011.1
20260905001605 88 0 0.0 1.7 0.00 0.06 0.06 64 1011.1
20260904234607 89 0 0.0 1.7 0.00 0.06 0.06 62 1011.2
20260904233100 89 0 0.0 0.9 0.00 0.06 0.06 60 1011.1
20260904231604 90 0 0.0 1.7 0.00 0.06 0.06 60 1011.0
20260904230128 90 0 0.0 1.7 0.00 0.06 0.06 59 1011.0
20260904224603 90 0 0.0 0.0 0.00 0.06 0.06 57 1011.1
20260904223108 90 0 0.0 2.6 0.00 0.06 0.06 59 1011.1
20260904221601 89 91 0.0 2.6 0.00 0.06 0.06 59 1011.2
20260904220101 89 0 0.0 1.7 0.00 0.06 0.06 64 1011.3
20260904214606 89 0 0.0 1.7 0.00 0.06 0.06 65 1011.6
20260904213105 89 103 0.0 1.7 0.00 0.06 0.06 67 1011.7
20260904211602 89 0 0.0 3.5 0.00 0.06 0.06 69 1012.1
20260904210104 90 0 0.0 2.6 0.00 0.06 0.06 69 1011.9
20260904204602 88 0 0.0 2.6 0.00 0.06 0.06 73 1012.3
20260904203109 86 134 0.0 3.5 0.00 0.06 0.06 76 1012.7
20260904201607 85 0 0.0 1.7 0.00 0.06 0.06 77 1012.8
20260904200105 85 128 0.0 1.7 0.00 0.06 0.06 79 1012.8
20260904194610 85 0 0.0 1.7 0.00 0.06 0.06 79 1012.7
20260904193105 85 0 0.0 2.6 0.00 0.06 0.06 79 1012.8
20260904191603 86 122 0.0 1.7 0.00 0.06 0.06 80 1013.0
20260904190105 86 0 0.0 1.7 0.00 0.06 0.06 81 1013.2
20260904184610 86 0 0.0 2.6 0.00 0.06 0.06 80 1013.4
20260904183115 86 0 0.0 1.7 0.00 0.06 0.06 78 1013.6
20260904181607 87 0 0.0 2.6 0.00 0.06 0.06 77 1013.8
20260904180115 87 0 0.0 1.7 0.00 0.06 0.06 75 1013.8
20260904174608 87 0 0.0 0.0 0.00 0.06 0.06 74 1013.8
20260904173119 88 0 0.0 0.0 0.00 0.06 0.06 74 1013.9
20260904171608 88 0 0.0 0.9 0.00 0.06 0.06 73 1013.9
20260904170109 89 0 0.0 0.9 0.00 0.06 0.06 71 1014.3
20260904164607 89 0 0.0 1.7 0.00 0.06 0.06 69 1014.3
20260904163109 89 0 0.0 1.7 0.00 0.06 0.06 70 1013.8
20260904161604 89 0 0.0 1.7 0.00 0.06 0.06 72 1013.9
20260904160109 84 0 0.0 0.9 0.00 0.06 0.06 82 1013.7
20260904154605 83 165 0.0 1.7 0.00 0.06 0.06 89 1014.0
20260904153109 82 0 0.0 1.7 0.00 0.06 0.06 93 1013.9
20260904151601 82 0 0.0 1.7 0.00 0.06 0.06 94 1013.7
20260904150111 81 0 0.0 0.0 0.00 0.06 0.06 94 1013.8
20260904144606 81 0 0.0 0.9 0.00 0.06 0.06 95 1013.7
20260904143105 81 0 0.0 2.6 0.00 0.06 0.06 95 1013.6
20260904141601 80 0 0.0 2.6 0.00 0.06 0.06 95 1013.6
20260904140110 80 0 0.0 1.7 0.00 0.06 0.06 95 1013.6
20260904134607 80 0 0.0 0.0 0.00 0.06 0.06 95 1013.4
20260904133105 79 0 0.0 0.0 0.00 0.06 0.06 95 1013.1
20260904131600 79 0 0.0 0.0 0.00 0.06 0.06 95 1013.1
20260904130108 79 0 0.0 0.9 0.00 0.06 0.06 94 1013.0
20260904124608 78 0 0.0 0.0 0.00 0.06 0.06 94 1012.9
20260904123106 78 0 0.0 0.9 0.00 0.06 0.06 94 1012.7
20260904121602 78 0 0.0 0.0 0.00 0.06 0.06 94 1012.5
20260904120113 78 0 0.0 0.9 0.00 0.06 0.06 94 1012.4
20260904114559 78 0 0.0 0.9 0.00 0.06 0.06 94 1012.3
20260904113101 79 0 0.0 0.9 0.00 0.06 0.06 94 1012.1
20260904111604 79 0 0.0 0.0 0.00 0.06 0.06 94 1012.3
20260904110108 79 0 0.0 0.0 0.00 0.06 0.06 94 1012.3
20260904104600 79 0 0.0 0.9 0.00 0.06 0.06 94 1012.1
20260904103105 79 0 0.0 0.0 0.00 0.06 0.06 94 1012.0
20260904101610 79 0 0.0 0.9 0.00 0.06 0.06 94 1012.0
20260904100101 79 0 0.0 0.0 0.00 0.06 0.06 93 1011.8
20260904094607 79 0 0.0 0.0 0.01 0.06 0.06 93 1011.9
20260904093110 79 0 0.0 0.0 0.01 0.06 0.06 93 1011.9